Flag for U.S.A. Weather past 2 weeks in Spartanburg, South Carolina, U.S.A.

Now
54 °F

Sunny.


Feels Like: 51 °F
Forecast: 30 / 55 °F
Wind: 9 mph from Southwest

Location: Spartanburg Memorial

Current Time: Jan 29, 2015 at 3:46:10 PM

Latest Report: Jan 29, 2015 at 3:15 PM


Visibility: 10 mi

Pressure: 30.13 "Hg

Humidity: 30%

Dew point: 23 °F

Location of SpartanburgLocation

Historic Weather in Spartanburg — Graph

°F

Spartanburg temperature yesterday

Maximum temperature yesterday: 52 °F (at 3:15 PM)
Minimum temperature yesterday: 27 °F (at 7:35 AM)
Average temperature yesterday: 39 °F

Past Weeks' High & Low Weather Summary

 TemperatureHumidityPressure
High70 °F (Jan 20, 2:15 PM)100% (Jan 15, 12:15 AM)30.33 "Hg (Jan 15, 12:15 AM)
Low27 °F (Jan 28, 7:35 AM)15% (Jan 19, 3:15 PM)29.60 "Hg (Jan 24, 5:35 AM)
Average45 °F55%30.03 "Hg
* Reported Jan 14 2:15 PM — Jan 29 2:35 PM, Spartanburg, Weather by CustomWeather, © 2014

Note: Actual official high and low records may vary slightly from our data, if they occured in-between our weather recording intervals... More about our weather records

Advertising

Spartanburg weather history for previous 24 hours

 ConditionsComfort  
Time TempWeatherWind HumidityBarometerVisibility
2:35 PM
Jan 29
52 °FSunny.7 mph30%30.15 "Hg10 mi
2:15 PM52 °FSunny.10 mph30%30.17 "Hg10 mi
1:35 PM52 °FSunny.12 mph32%30.21 "Hg10 mi
1:15 PM52 °FSunny.12 mph30%30.22 "Hg10 mi
12:35 PM50 °FSunny.12 mph32%30.25 "Hg10 mi
12:15 PM48 °FSunny.9 mph34%30.26 "Hg10 mi
11:35 AM45 °FSunny.6 mph42%30.30 "Hg10 mi
11:15 AM43 °FSunny.5 mph46%30.30 "Hg10 mi
10:35 AM41 °FSunny.8 mph49%30.31 "Hg10 mi
10:15 AM39 °FSunny.7 mph56%30.31 "Hg10 mi
9:35 AM37 °FSunny.7 mph60%30.31 "Hg10 mi
9:15 AM36 °FSunny.3 mph70%30.31 "Hg10 mi
8:35 AM30 °FSunny.No wind86%30.30 "Hg10 mi
8:15 AM30 °FSunny.No wind80%30.31 "Hg10 mi
7:35 AM30 °FSunny.No wind80%30.30 "Hg10 mi
7:15 AM30 °FClear.No wind86%30.30 "Hg10 mi
6:35 AM30 °FClear.No wind80%30.30 "Hg10 mi
6:15 AM30 °FClear.No wind80%30.29 "Hg10 mi
5:35 AM30 °FClear.No wind75%30.30 "Hg10 mi
5:15 AM30 °FClear.No wind75%30.31 "Hg10 mi
4:35 AM32 °FClear.No wind69%30.30 "Hg10 mi
4:15 AM32 °FClear.No wind69%30.30 "Hg10 mi
3:35 AM32 °FClear.No wind69%30.29 "Hg10 mi
3:15 AM32 °FClear.No wind69%30.30 "Hg10 mi
2:35 AM32 °FClear.No wind69%30.30 "Hg10 mi
2:15 AM32 °FClear.No wind69%30.30 "Hg10 mi
1:35 AM32 °FClear.No wind64%30.30 "Hg10 mi
1:15 AM32 °FClear.No wind69%30.29 "Hg10 mi
12:35 AM32 °FClear.No wind64%30.30 "Hg10 mi
12:15 AM34 °FClear.No wind60%30.30 "Hg10 mi
11:35 PM
Jan 28
34 °FClear.No wind65%30.31 "Hg10 mi
11:15 PM34 °FClear.No wind60%30.30 "Hg10 mi
10:35 PM34 °FClear.No wind60%30.29 "Hg10 mi
10:15 PM36 °FClear.No wind52%30.29 "Hg10 mi
9:35 PM36 °FClear.No wind56%30.28 "Hg10 mi
9:15 PM37 °FClear.No wind48%30.28 "Hg10 mi
8:35 PM39 °FClear.No wind45%30.27 "Hg10 mi
8:15 PM39 °FClear.No wind48%30.26 "Hg10 mi
7:35 PM43 °FClear.No wind39%30.25 "Hg10 mi
7:15 PM43 °FClear.No wind36%30.25 "Hg10 mi
6:35 PM46 °FClear.No wind29%30.24 "Hg10 mi
6:15 PM46 °FClear.No wind29%30.23 "Hg10 mi
5:35 PM52 °FSunny.No wind22%30.23 "Hg10 mi
5:15 PM52 °FSunny.No wind19%30.23 "Hg10 mi
4:15 PM52 °FSunny.5 mph20%30.22 "Hg10 mi
3:35 PM52 °FSunny.6 mph20%30.21 "Hg10 mi
3:15 PM52 °FSunny.5 mph20%30.22 "Hg10 mi
Weather by CustomWeather, © 2014

See weather overviewHow to use our weather pages